N6ZQK Weather Reports


Display with metric or nautical units.
time (UTC)temp
F
wind
direction
speed
MPH
gust
MPH
rain 1hr
in
rain 24hr
in
rain mn
in
humidity
%
barometer
mb
20260507144803 54 123 2.0 8.0 0.00 0.00 0.00 93 1017.4
20260507144203 54 122 3.0 8.0 0.00 0.00 0.00 94 1017.3
20260507143624 53 117 3.0 8.0 0.00 0.00 0.00 94 1017.3
20260507143003 53 119 3.0 9.0 0.00 0.00 0.00 94 1017.2
20260507142403 53 126 3.0 11.0 0.00 0.00 0.00 94 1017.1
20260507141803 53 122 4.0 11.0 0.00 0.00 0.00 94 1017.1
20260507141203 52 123 4.0 11.0 0.00 0.00 0.00 95 1017.0
20260507140624 52 121 3.0 11.0 0.00 0.00 0.00 94 1017.0
20260507140003 52 117 2.0 8.0 0.00 0.00 0.00 95 1017.0
20260507135403 52 111 3.0 9.0 0.00 0.00 0.00 95 1016.9
20260507134824 52 108 3.0 9.0 0.00 0.00 0.00 95 1016.8
20260507134203 52 106 3.0 9.0 0.00 0.00 0.00 95 1016.9
20260507133603 52 106 3.0 8.0 0.00 0.00 0.00 95 1016.8
20260507133003 52 109 3.0 8.0 0.00 0.00 0.00 95 1016.8
20260507132403 52 115 4.0 8.0 0.00 0.00 0.00 95 1016.7
20260507131803 52 120 3.0 7.0 0.00 0.00 0.00 95 1016.8
20260507131203 52 124 3.0 7.0 0.00 0.00 0.00 95 1016.8
20260507130603 52 127 2.0 8.0 0.00 0.00 0.00 95 1016.8
20260507130003 53 123 1.0 8.0 0.00 0.00 0.00 95 1016.8
20260507125403 53 119 1.0 5.0 0.00 0.00 0.00 95 1016.7
20260507124803 53 119 1.0 5.0 0.00 0.00 0.00 95 1016.7
20260507124203 53 119 1.0 5.0 0.00 0.00 0.00 95 1016.7
20260507123603 53 119 1.0 4.0 0.00 0.00 0.00 95 1016.6
20260507123003 53 119 1.0 4.0 0.00 0.00 0.00 95 1016.6
20260507122403 52 119 0.0 4.0 0.00 0.00 0.00 95 1016.5
20260507121803 53 119 0.0 2.0 0.00 0.00 0.00 95 1016.6
20260507121203 52 119 0.0 4.0 0.00 0.00 0.00 95 1016.6
20260507120624 52 119 0.0 4.0 0.00 0.00 0.00 95 1016.7
20260507120004 53 119 0.0 4.0 0.00 0.00 0.00 95 1016.6
20260507115403 53 119 1.0 5.0 0.00 0.00 0.00 95 1016.5
20260507114803 53 119 1.0 5.0 0.00 0.00 0.00 94 1016.6
20260507114203 53 119 0.0 4.0 0.00 0.00 0.00 94 1016.5
20260507113603 53 119 0.0 4.0 0.00 0.00 0.00 94 1016.5
20260507113004 53 119 1.0 4.0 0.00 0.00 0.00 95 1016.5
20260507112403 53 119 1.0 5.0 0.00 0.00 0.00 95 1016.5
20260507111803 53 119 2.0 6.0 0.00 0.00 0.00 95 1016.5
20260507111203 53 119 2.0 6.0 0.00 0.00 0.00 95 1016.5
20260507110603 53 119 1.0 5.0 0.00 0.00 0.00 95 1016.5
20260507110003 54 119 0.0 2.0 0.00 0.00 0.00 95 1016.5
20260507105403 54 119 0.0 2.0 0.00 0.00 0.00 94 1016.5
20260507104803 54 119 0.0 2.0 0.00 0.00 0.00 94 1016.4
20260507104203 54 0 0.0 0.0 0.00 0.00 0.00 95 1016.5
20260507103603 54 0 0.0 0.0 0.00 0.00 0.00 95 1016.5
20260507103003 54 0 0.0 0.0 0.00 0.00 0.00 94 1016.5
20260507102403 54 0 0.0 0.0 0.00 0.00 0.00 94 1016.5
20260507101803 54 0 0.0 0.0 0.00 0.00 0.00 94 1016.6
20260507101203 54 0 0.0 0.0 0.00 0.00 0.00 94 1016.5
20260507100603 54 0 0.0 0.0 0.00 0.00 0.00 94 1016.5
20260507100003 54 0 0.0 0.0 0.00 0.00 0.00 94 1016.5
20260507095403 54 0 0.0 0.0 0.00 0.00 0.00 94 1016.4
20260507094803 54 119 0.0 2.0 0.00 0.00 0.00 94 1016.4
20260507094203 54 119 0.0 1.0 0.00 0.00 0.00 94 1016.5
20260507093603 54 119 0.0 2.0 0.00 0.00 0.00 94 1016.4
20260507093003 54 119 1.0 4.0 0.00 0.00 0.00 94 1016.4
20260507092403 54 119 1.0 4.0 0.00 0.00 0.00 94 1016.5
20260507091803 54 119 1.0 4.0 0.00 0.00 0.00 94 1016.6
20260507091203 54 119 1.0 4.0 0.00 0.00 0.00 94 1016.6
20260507090603 55 119 1.0 4.0 0.00 0.00 0.00 94 1016.6
20260507090003 55 119 1.0 5.0 0.00 0.00 0.00 94 1016.8
20260507085403 55 119 1.0 5.0 0.00 0.00 0.00 94 1016.7
20260507084803 55 119 1.0 5.0 0.00 0.00 0.00 94 1016.7
20260507084203 55 119 1.0 5.0 0.00 0.00 0.00 94 1016.8
20260507083603 55 119 2.0 6.0 0.00 0.00 0.00 94 1016.9
20260507083003 55 120 2.0 6.0 0.00 0.00 0.00 94 1016.9
20260507082403 55 120 1.0 6.0 0.00 0.00 0.00 94 1016.9
20260507081803 55 121 1.0 6.0 0.00 0.00 0.00 94 1017.0
20260507081203 55 121 1.0 5.0 0.00 0.00 0.00 94 1016.8
20260507080603 55 121 1.0 5.0 0.00 0.00 0.00 94 1017.0
20260507080003 55 121 0.0 2.0 0.00 0.00 0.00 94 1016.9
20260507075403 55 121 0.0 2.0 0.00 0.00 0.00 94 1016.9
20260507074803 56 121 1.0 5.0 0.00 0.00 0.00 94 1016.9
20260507074203 56 121 0.0 5.0 0.00 0.00 0.00 94 1016.8
20260507073603 56 121 0.0 4.0 0.00 0.00 0.00 94 1016.9
20260507073003 56 0 0.0 0.0 0.00 0.00 0.00 93 1017.0
20260507072403 56 0 0.0 0.0 0.00 0.00 0.00 93 1017.1
20260507071824 56 121 0.0 1.0 0.00 0.00 0.00 93 1017.1
20260507071203 56 121 0.0 1.0 0.00 0.00 0.00 93 1017.1
20260507070603 56 121 0.0 6.0 0.00 0.00 0.00 93 1017.2
20260507070005 56 122 1.0 6.0 0.00 0.00 0.00 93 1017.2
20260507065424 56 123 1.0 6.0 0.00 0.00 0.00 93 1017.1
20260507064824 56 124 1.0 5.0 0.00 0.00 0.00 93 1017.2
20260507064203 56 124 1.0 5.0 0.00 0.00 0.00 93 1017.1
20260507063603 56 124 1.0 4.0 0.00 0.00 0.00 93 1017.0
20260507063024 56 125 1.0 6.0 0.00 0.00 0.00 93 1017.0
20260507062403 56 126 2.0 6.0 0.00 0.00 0.00 93 1017.0
20260507061803 56 127 1.0 6.0 0.00 0.00 0.00 93 1017.1
20260507061203 56 127 1.0 5.0 0.00 0.00 0.00 93 1017.2
20260507060603 56 127 1.0 5.0 0.00 0.00 0.00 93 1017.0
20260507060003 56 127 1.0 5.0 0.00 0.00 0.00 93 1017.0
20260507055424 56 127 1.0 6.0 0.00 0.00 0.00 93 1017.1
20260507054803 56 128 1.0 6.0 0.00 0.00 0.00 93 1017.2
20260507054203 56 128 1.0 5.0 0.00 0.00 0.00 93 1017.2
20260507053603 56 128 2.0 5.0 0.00 0.00 0.00 93 1017.0
20260507053003 56 128 2.0 6.0 0.00 0.00 0.00 93 1017.0
20260507052403 56 134 2.0 6.0 0.00 0.00 0.00 93 1017.0
20260507051803 56 140 1.0 6.0 0.00 0.00 0.00 93 1017.0
20260507051203 56 146 1.0 5.0 0.00 0.00 0.00 93 1017.0
20260507050603 56 163 2.0 6.0 0.00 0.00 0.00 93 1017.0
20260507050003 56 197 1.0 4.0 0.00 0.00 0.00 92 1017.0
20260507045403 56 245 1.0 2.0 0.00 0.00 0.00 92 1017.0
20260507044803 56 254 1.0 2.0 0.00 0.00 0.00 92 1017.1
20260507044203 56 263 0.0 1.0 0.00 0.00 0.00 92 1017.0
20260507043603 56 263 0.0 1.0 0.00 0.00 0.00 92 1017.1
20260507043003 56 263 0.0 2.0 0.00 0.00 0.00 91 1017.0
20260507042403 56 263 0.0 2.0 0.00 0.00 0.00 91 1017.0
20260507041803 57 263 0.0 2.0 0.00 0.00 0.00 91 1016.9
20260507041203 57 263 0.0 2.0 0.00 0.00 0.00 91 1016.7
20260507040603 57 263 0.0 1.0 0.00 0.00 0.00 90 1016.8
20260507040003 57 263 0.0 1.0 0.00 0.00 0.00 90 1016.6
20260507035403 57 263 0.0 2.0 0.00 0.00 0.00 90 1016.7
20260507034803 58 263 0.0 2.0 0.00 0.00 0.00 90 1016.7
20260507034203 58 263 0.0 1.0 0.00 0.00 0.00 89 1016.7
20260507033603 58 263 0.0 2.0 0.00 0.00 0.00 89 1016.6
20260507033003 58 263 0.0 2.0 0.00 0.00 0.00 88 1016.6
20260507032403 59 263 0.0 2.0 0.00 0.00 0.00 88 1016.4
20260507031803 59 263 0.0 2.0 0.00 0.00 0.00 87 1016.4
20260507031203 60 263 0.0 2.0 0.00 0.00 0.00 87 1016.4
20260507030624 60 263 0.0 2.0 0.00 0.00 0.00 87 1016.4
20260507030003 60 263 0.0 1.0 0.00 0.00 0.00 86 1016.4
20260507025403 61 263 0.0 1.0 0.00 0.00 0.00 85 1016.3
20260507024803 61 263 0.0 2.0 0.00 0.00 0.00 84 1016.3
20260507024203 62 263 0.0 2.0 0.00 0.00 0.00 84 1016.3
20260507023603 62 263 0.0 2.0 0.00 0.00 0.00 83 1016.3
20260507023003 62 263 0.0 2.0 0.00 0.00 0.00 84 1016.3
20260507022403 62 263 0.0 2.0 0.00 0.00 0.00 83 1016.2
20260507021803 62 270 1.0 4.0 0.00 0.00 0.00 82 1016.2
20260507021203 63 279 1.0 4.0 0.00 0.00 0.00 82 1016.2
20260507020624 63 291 0.0 2.0 0.00 0.00 0.00 81 1016.1
20260507020003 63 289 1.0 4.0 0.00 0.00 0.00 82 1016.1
20260507015403 63 288 1.0 4.0 0.00 0.00 0.00 81 1016.2
20260507014803 63 284 0.0 4.0 0.00 0.00 0.00 80 1016.3
20260507014203 64 273 0.0 3.0 0.00 0.00 0.00 82 1016.2
20260507013603 64 287 0.0 4.0 0.00 0.00 0.00 80 1016.2
20260507013003 64 297 1.0 4.0 0.00 0.00 0.00 79 1016.2
20260507012403 64 321 1.0 6.0 0.00 0.00 0.00 79 1016.2
20260507011803 64 307 1.0 6.0 0.00 0.00 0.00 78 1016.2
20260507011203 64 288 1.0 5.0 0.00 0.00 0.00 78 1016.4
20260507010603 64 277 0.0 4.0 0.00 0.00 0.00 78 1016.3
20260507010024 64 267 1.0 5.0 0.00 0.00 0.00 78 1016.3
20260507005403 64 283 1.0 5.0 0.00 0.00 0.00 80 1016.3
20260507004803 64 303 1.0 6.0 0.00 0.00 0.00 77 1016.3
20260507004203 64 260 1.0 6.0 0.00 0.00 0.00 78 1016.3
20260507003603 64 250 2.0 5.0 0.00 0.00 0.00 79 1016.3
20260507003003 64 308 2.0 6.0 0.00 0.00 0.00 78 1016.4
20260507002403 64 326 3.0 7.0 0.00 0.00 0.00 77 1016.3
20260507001803 64 313 1.0 7.0 0.00 0.00 0.00 77 1016.3
20260507001203 64 271 2.0 6.0 0.00 0.00 0.00 78 1016.3
20260507000603 64 275 2.0 5.0 0.00 0.00 0.00 77 1016.4
20260507000003 64 295 1.0 6.0 0.00 0.00 0.00 78 1016.4
20260506235424 64 277 2.0 7.0 0.00 0.00 0.00 78 1016.3
20260506234803 64 278 1.0 6.0 0.00 0.00 0.00 78 1016.3
20260506234203 64 285 1.0 4.0 0.00 0.00 0.00 79 1016.3
20260506233603 63 297 1.0 5.0 0.00 0.00 0.00 78 1016.4
20260506233003 63 308 2.0 7.0 0.00 0.00 0.00 78 1016.5
20260506232403 63 305 1.0 7.0 0.00 0.00 0.00 79 1016.4
20260506231803 63 316 2.0 8.0 0.00 0.00 0.00 80 1016.6
20260506231203 63 319 4.0 8.0 0.00 0.00 0.00 78 1016.7
20260506230603 63 313 4.0 7.0 0.00 0.00 0.00 77 1016.8
20260506230003 63 299 2.0 7.0 0.00 0.00 0.00 77 1017.1
20260506225403 63 304 1.0 5.0 0.00 0.00 0.00 79 1017.1
20260506224803 63 302 1.0 6.0 0.00 0.00 0.00 79 1017.1
20260506224203 63 278 1.0 5.0 0.00 0.00 0.00 79 1017.1
20260506223603 63 261 1.0 5.0 0.00 0.00 0.00 78 1017.3
20260506223024 62 280 1.0 7.0 0.00 0.00 0.00 79 1017.2
20260506222424 62 320 3.0 8.0 0.00 0.00 0.00 78 1017.4
20260506221824 62 304 3.0 8.0 0.00 0.00 0.00 78 1017.5
20260506221203 62 271 1.0 7.0 0.00 0.00 0.00 79 1017.7
20260506220624 62 264 1.0 5.0 0.00 0.00 0.00 80 1017.7
20260506220003 62 293 2.0 8.0 0.00 0.00 0.00 79 1017.7
20260506215403 61 309 3.0 8.0 0.00 0.00 0.00 79 1017.7
20260506214803 61 279 2.0 7.0 0.00 0.00 0.00 80 1017.7
20260506214203 61 277 3.0 7.0 0.00 0.00 0.00 80 1017.9
20260506213603 61 306 3.0 7.0 0.00 0.00 0.00 80 1017.9
20260506213003 60 302 2.0 7.0 0.00 0.00 0.00 79 1017.9
20260506212403 61 258 2.0 7.0 0.00 0.00 0.00 78 1018.2
20260506211803 61 251 2.0 7.0 0.00 0.00 0.00 80 1018.2
20260506211203 60 256 2.0 5.0 0.00 0.00 0.00 80 1018.1
20260506210603 60 263 0.0 3.0 0.00 0.00 0.00 78 1018.2
20260506210003 60 246 1.0 8.0 0.00 0.00 0.00 81 1018.3
20260506205424 60 265 3.0 8.0 0.00 0.00 0.00 81 1018.3
20260506204803 59 311 3.0 8.0 0.00 0.00 0.00 81 1018.4
20260506204203 59 302 2.0 7.0 0.00 0.00 0.00 80 1018.4
20260506203603 59 274 1.0 5.0 0.00 0.00 0.00 80 1018.4
20260506203024 59 249 2.0 7.0 0.00 0.00 0.00 80 1018.5
20260506202403 58 262 2.0 7.0 0.00 0.00 0.00 81 1018.6
20260506201803 58 264 2.0 8.0 0.00 0.00 0.00 82 1018.6
20260506201203 58 340 1.0 4.0 0.00 0.00 0.00 82 1018.8
20260506200603 58 315 2.0 6.0 0.00 0.00 0.00 83 1018.8
20260506200003 57 303 2.0 6.0 0.00 0.00 0.00 82 1018.9
20260506195424 57 319 2.0 6.0 0.00 0.00 0.00 84 1018.9
20260506194803 57 319 1.0 6.0 0.00 0.00 0.00 83 1018.9
20260506194203 56 313 0.0 2.0 0.00 0.00 0.00 83 1018.9
20260506193624 56 315 1.0 4.0 0.00 0.00 0.00 83 1018.8
20260506193003 56 312 2.0 6.0 0.00 0.00 0.00 84 1019.1
20260506192403 56 309 2.0 8.0 0.00 0.00 0.00 84 1019.3
20260506191803 56 323 2.0 8.0 0.00 0.00 0.00 84 1019.3
20260506191203 56 343 2.0 6.0 0.00 0.00 0.00 85 1019.4
20260506190603 56 330 1.0 6.0 0.00 0.00 0.00 85 1019.5
20260506190003 55 325 2.0 5.0 0.00 0.00 0.00 85 1019.4
20260506185403 55 322 2.0 6.0 0.00 0.00 0.00 85 1019.4
20260506184803 55 321 1.0 6.0 0.00 0.00 0.00 85 1019.4
20260506184203 55 321 1.0 6.0 0.00 0.00 0.00 85 1019.4
20260506183603 55 317 1.0 6.0 0.00 0.00 0.00 86 1019.4
20260506183003 54 310 2.0 6.0 0.00 0.00 0.00 85 1019.5
20260506182424 54 303 1.0 5.0 0.00 0.00 0.00 86 1019.4
20260506181803 54 311 1.0 7.0 0.00 0.00 0.00 87 1019.4
20260506181203 54 316 1.0 7.0 0.00 0.00 0.00 86 1019.4
20260506180603 54 329 0.0 2.0 0.00 0.00 0.00 86 1019.5
20260506180024 54 328 1.0 5.0 0.00 0.00 0.00 86 1019.5
20260506175403 54 322 1.0 5.0 0.00 0.00 0.00 88 1019.5
20260506174803 53 318 1.0 4.0 0.00 0.00 0.00 87 1019.5
20260506174203 53 316 0.0 4.0 0.00 0.00 0.00 87 1019.5
20260506173624 53 316 1.0 4.0 0.00 0.00 0.00 88 1019.5
20260506173003 53 316 1.0 4.0 0.00 0.00 0.00 87 1019.5
20260506172403 53 316 0.0 4.0 0.00 0.00 0.00 87 1019.5
20260506171803 53 308 1.0 5.0 0.00 0.00 0.00 87 1019.5
20260506171203 53 304 1.0 5.0 0.00 0.00 0.00 87 1019.5
20260506170603 53 292 1.0 5.0 0.00 0.00 0.00 87 1019.5
20260506170003 53 281 0.0 2.0 0.00 0.00 0.00 87 1019.4
20260506165424 53 281 0.0 2.0 0.00 0.00 0.00 88 1019.4
20260506164824 52 301 0.0 4.0 0.00 0.00 0.00 88 1019.4
20260506164203 52 341 0.0 2.0 0.00 0.00 0.00 88 1019.4
20260506163603 52 347 0.0 5.0 0.00 0.00 0.00 88 1019.3
20260506163003 52 348 0.0 2.0 0.00 0.00 0.00 88 1019.3
20260506162403 52 349 0.0 2.0 0.00 0.00 0.00 89 1019.2
20260506161824 52 350 0.0 2.0 0.00 0.00 0.00 89 1019.2
20260506161203 52 352 1.0 4.0 0.00 0.00 0.00 90 1019.2
20260506160603 52 356 0.0 2.0 0.00 0.00 0.00 91 1019.2
20260506160003 51 356 0.0 1.0 0.00 0.00 0.00 90 1019.2
20260506155403 51 356 0.0 2.0 0.00 0.00 0.00 90 1019.2
20260506154803 51 356 1.0 4.0 0.00 0.00 0.00 90 1019.2
20260506154203 51 332 1.0 7.0 0.00 0.00 0.00 91 1019.2
20260506153603 51 232 1.0 7.0 0.00 0.00 0.00 91 1019.1
20260506153003 51 181 0.0 3.0 0.00 0.00 0.00 94 1019.1
20260506152403 51 181 1.0 3.0 0.00 0.00 0.00 95 1019.1
20260506151803 51 181 0.0 2.0 0.00 0.00 0.00 95 1019.1
20260506151203 51 181 0.0 2.0 0.00 0.00 0.00 95 1019.2
20260506150624 51 0 0.0 0.0 0.00 0.00 0.00 95 1019.1
20260506150024 50 0 0.0 0.0 0.00 0.00 0.00 95 1019.2
20260506145403 50 0 0.0 0.0 0.00 0.01 0.00 95 1019.1